Location: Brienzwiler
(46.7508°N, 8.1014°E)
Time: 08:05:02
(UTC+00:00)

Cosmos 2333 Rocket - Pass Details

Date: 05 July 2020
Orbit: 837 x 864 km, 70.8° (Epoch: 05 August)

Event Time Altitude Azimuth Distance (km) Brightness Sun altitude
Exits shadow 20:39:21 - 187° (S) 3,334 4.9 -10.3°
Reaches altitude 10° 20:41:42 10° 182° (S) 2,461 4.2 -10.6°
Maximum altitude 20:47:07 49° 109° (ESE) 1,085 2.4 -11.2°
Drops below altitude 10° 20:52:37 10° 36° (NE) 2,495 4.9 -11.8°
Sets 20:55:09 0° 32° (NNE) 3,439 5.7 -12.0°
